Location: M�enkyl�
(61.4000°N, 22.9833°E)
Time: 22:00:51
(UTC+00:00)

Daily predictions for brighter satellites

Satellite Brightness Start Highest point End
(mag) Time Altitude Azimuth Time Altitude Azimuth Time Altitude Azimuth
Cosmos 1833 Rocket 4.4 18:39:17 10° W 18:44:29 36° NNW 18:49:41 10° NE
NOSS 3-1 (C) 3.9 18:37:58 10° WNW 18:44:34 85° NNE 18:52:33 10° ESE
Cosmos 1655 Rocket 4.2 18:38:45 10° NNW 18:45:04 64° ENE 18:51:17 10° SSE
Genesis I 3.5 18:42:06 10° WNW 18:46:04 63° SW 18:50:01 10° SE
Landsat 7 3.9 18:43:46 10° SSE 18:48:33 87° ENE 18:53:22 10° NNW
RESURS DK-1 3.2 18:45:13 10° S 18:48:47 29° ESE 18:52:23 10° ENE
Meteor 2-1 Rocket 4.5 18:43:43 10° S 18:49:27 58° E 18:55:17 10° NNE
Cosmos 2058 3.7 18:45:25 10° NNW 18:49:34 56° W 18:53:40 10° S
SL-16 R/B 2.4 18:44:08 10° NW 18:49:52 70° NE 18:55:33 10° SE
CZ-2C R/B 3.6 18:45:23 10° NNE 18:50:25 52° WNW 18:55:27 10° SW
Cosmos 1980 4.0 18:45:27 10° NW 18:51:07 66° SW 18:56:45 10° SSE
USA 245 3.0 18:48:25 10° SSE 18:52:05 61° ENE 18:55:05 10° NNW
NOSS 2-2 (C) 3.9 18:49:09 10° W 18:53:02 70° N 18:58:07 10° ENE
Cosmos-2242 4.3 18:50:01 10° SE 18:53:28 24° E 18:56:55 10° NNE
NOSS 2-2 (E) 4.0 18:51:18 10° W 18:55:17 69° N 19:00:36 10° E
ATLAS 3B R/B 3.9 18:50:54 10° WNW 18:57:09 37° SW 19:03:39 10° S
COSMOS 2428 4.2 18:54:14 10° NW 18:59:21 34° WSW 19:04:28 10° S
Meteor 2-3 Rocket 3.9 18:53:47 10° NNW 18:59:36 70° ENE 19:05:21 10° SSE
SME Rocket 3.7 18:57:58 10° NNE 19:01:41 57° WNW 19:05:40 10° SW
Cosmos 2058 Rocket 3.1 18:57:47 10° SSW 19:02:09 86° W 19:06:34 10° NNE
Cosmos 2151 3.0 18:59:14 10° NNW 19:03:35 78° ENE 19:07:54 10° SSE
USA 215 4.2 18:59:07 10° SSE 19:05:07 37° SSW 19:11:08 10° W
COSMOS 2487 2.3 19:02:44 10° SSW 19:06:08 77° ESE 19:09:34 10° NE
NOSS 2-3 (D) 4.5 19:01:39 10° WNW 19:07:02 86° NNE 19:14:10 10° ESE
Cosmos 1076 Rocket 3.9 19:02:48 10° NNW 19:07:10 66° W 19:11:28 10° S
IRIDIUM 104 4.4 19:02:38 10° S 19:07:47 66° E 19:12:59 10° N
ERS-2 3.8 19:07:25 10° N 19:10:52 39° WNW 19:14:17 10° SW
Cosmos 2219 Rocket 4.1 19:07:54 10° NW 19:12:31 26° WSW 19:17:06 10° SSW
Cosmos 1833 4.3 19:07:50 10° SW 19:13:30 90° SSW 19:19:15 10° NE
Cosmos 1818 4.2 19:11:31 10° S 19:16:24 35° SE 19:21:19 10° ENE
IRIDIUM 114 4.3 19:11:43 10° S 19:16:56 75° E 19:22:10 10° N
Cosmos 1812 Rocket 3.8 19:12:55 10° S 19:17:15 52° E 19:21:37 10° NNE
Okean 3 Rocket 3.9 19:13:09 10° N 19:17:40 55° ENE 19:21:57 11° SSE
Cosmos 909 Rocket 4.5 19:12:31 10° S 19:18:17 40° ESE 19:24:28 10° ENE
Cosmos 1943 3.9 19:14:00 10° NW 19:19:27 48° NNE 19:24:55 10° ESE
Resurs 01 Rocket 2.6 19:15:14 10° S 19:19:32 46° W 19:23:52 10° NNW
ERS-1 Rocket 3.0 19:14:51 10° SSE 19:19:51 71° ENE 19:24:53 10° NNW
Cosmos 407 Rocket 4.3 19:15:33 10° SSE 19:20:00 31° ESE 19:24:31 10° NE
Cosmos 44 4.0 19:15:58 10° SSW 19:20:47 39° SE 19:25:48 10° ENE
Cosmos 1766 Rocket 3.7 19:18:00 10° N 19:22:19 58° ENE 19:26:19 12° SSE
Cosmos 1455 2.8 19:19:45 10° SSW 19:23:28 58° WNW 19:27:11 10° N
Cosmos 1633 2.9 19:22:21 10° NNW 19:25:57 64° W 19:29:30 10° S
IRIDIUM 103 4.3 19:20:51 10° S 19:26:05 84° E 19:31:21 10° N
ATLAS 5 CENTAUR R/B 1.8 19:22:30 10° WSW 19:26:55 84° NNW 19:32:10 10° ENE
NOSS 8 (F) 4.5 19:25:03 10° WNW 19:28:15 89° NNE 19:32:08 11° ESE
Cosmos 405 Rocket 4.4 19:27:51 10° NNW 19:31:32 33° W 19:35:09 10° SSW
CARTOSAT-1 3.6 19:27:24 10° SSE 19:31:45 85° WSW 19:36:07 10° NNW
Lacrosse 5 rocket 1.7 19:30:02 10° WSW 19:34:03 47° S 19:38:18 10° ESE
Meteor 1-4 Rocket 3.9 19:36:04 15° SE 19:37:53 22° E 19:40:40 10° NE
COSMOS 2455 4.3 19:35:12 13° SE 19:37:53 17° ESE 19:41:35 10° ENE
Cosmos 2237 Rocket 3.2 19:34:32 10° NW 19:39:45 39° WSW 19:44:57 10° S
SeaSat 1 4.3 19:41:55 10° ENE 19:43:43 12° E 19:44:52 11° ESE
CZ-2C R/B 3.6 19:39:40 10° NNE 19:44:10 75° ESE 19:48:37 10° SSW
Cosmos 1140 Rocket 4.0 19:39:47 10° S 19:44:31 39° ESE 19:49:16 10° NE
SPOT 5 2.8 19:40:17 12° SSE 19:44:36 86° WSW 19:49:31 10° NNW
Cosmos 1869 4.1 19:43:10 15° SSE 19:45:57 34° E 19:49:33 10° NNE
Cosmos 2279 Rocket 4.1 19:39:54 10° SSW 19:46:07 84° WNW 19:52:23 10° NNE
Spot 2 Rocket 3.9 19:42:01 10° S 19:47:04 61° WSW 19:52:08 10° NNW
USA 229 DEB 3.9 19:44:39 10° WNW 19:51:41 83° SSW 19:58:43 12° ESE
USA 229 3.9 19:44:45 10° WNW 19:51:48 84° SSW 19:58:50 12° ESE
NOSS 2-2 (D) 4.0 19:49:28 10° WNW 19:53:33 71° N 19:59:05 10° E
Terra 1.8 19:50:06 14° SSE 19:54:14 88° ENE 19:59:02 10° NNW
USA-17 4.1 19:54:42 10° SW 19:57:52 57° SSE 20:00:52 10° ENE
Cosmos 468 Rocket 4.0 19:54:25 10° NW 19:59:35 84° WSW 20:03:36 17° SSE
NOSS 3-4 (A) 3.5 19:53:48 10° WSW 19:59:54 85° SSE 20:06:42 10° ENE
NOSS 3-4 (C) 3.5 19:53:54 10° WSW 20:00:00 85° SSE 20:06:48 10° ENE
Cosmos 2263 Rocket 4.1 20:01:13 10° ESE 20:02:30 11° E 20:03:48 10° E
Cosmos 2227 Rocket 2.7 19:57:41 10° S 20:02:53 38° ESE 20:08:06 10° NE
Cosmos 1603 3.9 19:58:15 10° NW 20:04:01 70° NE 20:08:44 15° SE
Cosmos 389 Rocket 3.1 20:02:35 10° SSW 20:06:05 58° WNW 20:09:39 10° NNE
Cosmos 2251 Rocket 3.7 20:01:19 10° SW 20:06:42 82° NW 20:12:04 10° NE
USA 281 4.2 20:00:42 10° E 20:06:47 42° NNE 20:12:54 10° NW
Cosmos 1745 Rocket 4.5 20:00:51 10° N 20:07:04 52° ENE 20:11:52 17° SE
Cosmos 841 Rocket 3.7 20:02:12 10° NNW 20:07:28 69° NE 20:11:25 18° SE
NOSS 3-1 (A) 3.9 20:02:38 10° WNW 20:09:26 79° SSW 20:16:39 14° SE
Cosmos 2297 Rocket 2.4 20:04:47 10° S 20:10:12 49° ESE 20:15:39 10° NE
Cosmos 2219 3.4 20:07:29 10° S 20:12:50 47° ESE 20:18:15 10° NE
Cosmos 1190 Rocket 4.2 20:08:19 10° S 20:13:22 52° ESE 20:18:27 10° NE
NOSS 7 (H) 3.9 20:10:49 10° WSW 20:13:46 72° SSE 20:16:46 10° ENE
ARIANE 5 R/B 3.8 20:09:42 10° SSW 20:13:50 38° W 20:17:58 10° NNW
ATLAS 2AS CENTAUR R/B 3.0 20:06:05 10° SW 20:14:00 82° SSE 20:21:35 10° ENE
H-2A R/B 3.8 20:10:21 10° NNE 20:14:26 47° E 20:17:13 19° SSE
Cosmos 1842 Rocket 4.4 20:12:26 20° SE 20:14:52 34° E 20:18:54 10° NNE
Cosmos 1814 Rocket 4.3 20:09:48 10° NNW 20:15:08 62° NE 20:19:11 17° SE
Cosmos 2082 Rocket 4.0 20:13:14 10° WNW 20:18:17 32° N 20:23:18 10° ENE
Timation 2 Rocket 4.3 20:12:41 10° S 20:18:52 48° ESE 20:24:49 10° NE
Cosmos 1763 Rocket 3.6 20:14:17 10° NW 20:19:21 68° WSW 20:22:57 19° SSE
Cosmos 921 Rocket 3.3 20:17:38 10° NNW 20:22:07 63° NE 20:25:01 21° SE
Orbus 7S? 4.4 20:19:52 10° SW 20:23:41 47° SSE 20:32:08 10° E
Cosmos 1862 3.2 20:19:58 10° NNW 20:23:57 89° ENE 20:26:25 22° SSE
CZ-4C R/B 2.7 20:19:53 10° W 20:25:38 79° NNW 20:32:48 10° ENE
Cosmos 1408 Rocket 3.6 20:21:43 10° NNW 20:26:04 77° WSW 20:29:02 20° S
RESURS DK-1 2.6 20:22:23 10° SW 20:26:33 73° NW 20:30:43 10° NE
JB-3 4.4 20:23:14 10° NNE 20:27:25 89° NW 20:31:09 12° SSW
Cosmos 1833 Rocket 4.4 20:24:42 10° NW 20:29:48 33° N 20:34:54 10° ENE
Cosmos-2242 3.3 20:26:20 10° SSW 20:30:40 70° WNW 20:34:59 10° NNE
Cosmos 676 Rocket 4.3 20:26:56 16° S 20:30:49 47° ESE 20:35:47 10° NE
Cosmos 1805 Rocket 4.0 20:27:13 10° N 20:31:31 51° ENE 20:34:03 22° SE
NOSS 7 (E) 4.0 20:29:17 10° WSW 20:32:28 70° SSE 20:35:31 10° ENE
SL-16 R/B 3.1 20:28:30 10° NW 20:33:49 41° WSW 20:37:53 16° S
Cosmos 2084 Rocket 4.5 20:34:18 23° SE 20:34:18 23° SE 20:37:33 10° ENE
CRYOSAT 2 4.4 20:31:01 18° S 20:34:41 85° W 20:39:38 10° N
NOSS 3-1 (C) 4.2 20:28:40 10° WNW 20:35:28 57° SW 20:41:19 19° SSE
Spot 4 4.1 20:32:39 21° SE 20:35:49 62° ENE 20:40:39 10° NNW
Cosmos 540 Rocket 3.5 20:33:51 10° NW 20:39:00 78° WSW 20:42:15 23° SSE
SL-08 ROCKET BODY 4.4 20:33:40 10° NNW 20:39:50 89° W 20:44:10 20° SSE
Cosmos 1174 4.1 20:34:38 10° WNW 20:39:58 88° SW 20:42:44 22° SE
Cosmos 614 Rocket 4.3 20:36:18 10° SW 20:41:25 66° NW 20:46:32 10° NNE
Sich 1 3.5 20:37:24 10° N 20:41:36 49° ENE 20:43:56 24° SE
Cosmos 1743 Rocket 3.5 20:37:12 10° NNW 20:41:36 89° ENE 20:44:08 25° SSE
SL-08 R/B 4.5 20:36:31 10° NNW 20:42:42 87° WSW 20:47:09 20° S
NOSS 2-2 (C) 3.9 20:39:34 10° WNW 20:43:53 85° NNE 20:49:48 10° ESE
Cosmos 1570 Rocket 4.0 20:40:10 10° NW 20:45:33 88° NE 20:48:56 23° SE
Cosmos 1386 Rocket 4.4 20:39:57 10° NNW 20:46:05 77° ENE 20:50:08 22° SSE
NOSS 2-2 (E) 3.9 20:41:40 10° WNW 20:46:08 90° SSE 20:51:59 11° ESE
Cosmos 2344 3.6 20:44:33 10° SW 20:52:00 80° SSE 21:00:58 10° ENE
Meteor 1-27 4.5 20:48:12 10° SSW 20:53:59 76° WNW 20:59:52 10° NNE
Cosmos 1633 Rocket 3.9 20:51:03 10° N 20:55:10 39° ENE 20:57:34 21° ESE
Cosmos 2221 2.5 20:53:19 26° S 20:55:38 65° E 20:59:54 10° NNE
Aureole 1 Rocket 4.3 20:55:37 23° SSE 20:57:41 31° ESE 21:01:40 10° NE
Cosmos 1553 Rocket 4.0 20:54:34 21° S 20:58:38 64° E 21:04:41 10° NNE
ERS-1 Rocket 4.5 20:54:44 10° SSW 20:59:06 29° W 21:03:31 10° NNW
Cosmos 44 Rocket 4.3 20:57:58 25° SSE 20:59:34 30° SE 21:04:06 10° ENE
Cosmos 1818 3.5 20:54:05 10° WSW 20:59:34 87° SSE 21:05:07 10° ENE
Cosmos 1500 Rocket 3.8 20:56:42 10° NNW 21:01:10 66° W 21:03:43 25° S
Cosmos 407 Rocket 3.7 20:56:29 10° SW 21:01:39 75° NW 21:06:54 10° NNE
Cosmos 44 3.5 20:56:26 10° WSW 21:01:46 87° NNW 21:07:17 10° ENE
Cosmos 1666 Rocket 4.1 20:57:46 10° N 21:02:11 51° ENE 21:04:34 25° SE
Cosmos 1943 3.3 20:58:14 10° NW 21:03:50 69° SW 21:07:11 25° SSE
SL-24 R/B - RUBIN 2 4.4 20:58:07 10° WSW 21:04:41 87° NNW 21:10:39 10° ENE
ATLAS 5 CENTAUR R/B 2.2 21:07:08 10° W 21:11:50 72° N 21:17:29 10° E
Meteor 1-4 Rocket 3.1 21:10:11 18° SW 21:12:36 54° WNW 21:16:07 10° NNE
Lacrosse 5 rocket 2.0 21:08:47 10° W 21:12:48 39° SSW 21:14:11 30° SSE
ALOS 2 2.7 21:12:33 28° SSE 21:14:47 73° ENE 21:19:11 10° NNW
Cosmos 1850 Rocket 4.4 21:13:53 26° SSE 21:16:22 46° ESE 21:21:24 10° NE
Cosmos 1954 Rocket 3.9 21:12:17 13° SSW 21:16:54 85° ESE 21:22:07 10° NE
Intercosmos 24 4.4 21:14:43 26° S 21:17:32 61° E 21:21:32 10° NNE
Cosmos 909 Rocket 4.2 21:11:49 10° WSW 21:18:08 83° NNW 21:25:15 10° ENE
Cosmos 1242 Rocket 4.5 21:18:42 17° ESE 21:19:26 17° E 21:21:55 10° NE
Cosmos 1782 4.5 21:18:48 19° ESE 21:20:02 22° E 21:23:10 10° NE
Cosmos 2208 Rocket 4.1 21:14:59 10° NW 21:20:17 70° WSW 21:23:12 27° SSE
Cosmos 1869 4.4 21:18:39 12° SW 21:22:10 42° WNW 21:25:57 10° N
Meteor 2-2 Rocket 4.2 21:18:00 19° SSW 21:22:15 90° W 21:27:59 10° NNE
SeaSat 1 2.8 21:17:40 10° NE 21:22:26 44° ESE 21:24:38 28° S
Cosmos 1933 4.3 21:21:16 27° SE 21:22:34 34° E 21:26:18 10° NNE
COSMOS 2455 3.0 21:18:15 18° SSW 21:22:40 53° SE 21:28:30 10° NE
Cosmos 1140 Rocket 4.0 21:21:06 10° SW 21:26:11 61° NW 21:31:18 10° NNE
NOSS 2-1 (D) 4.3 21:31:04 24° ESE 21:31:04 24° ESE 21:33:30 10° ENE
NOSS 6 (D) 4.5 21:28:51 10° WNW 21:31:53 85° SSW 21:32:55 38° ESE
Terra 3.7 21:28:59 10° SW 21:32:37 22° W 21:36:21 10° NW
Iridium 4 Rocket 4.1 21:32:12 26° SE 21:34:40 46° E 21:39:50 10° NNE
Cosmos 1606 2.6 21:34:03 37° S 21:35:26 78° ESE 21:39:13 10° NNE
Timation 1 Rocket 4.3 21:33:37 14° SSW 21:38:49 75° SE 21:44:48 10° NE
USA 290 3.7 21:37:11 10° NNW 21:40:16 35° NE 21:42:09 19° E
USA 229 DEB 4.4 21:35:37 10° WNW 21:42:13 42° SW 21:46:07 24° S
USA 229 4.4 21:35:42 10° WNW 21:42:20 42° SW 21:46:14 24° S
Cosmos 2082 3.6 21:39:13 16° SSW 21:43:51 81° SE 21:49:31 10° NE
Cosmos 1500 3.6 21:40:28 10° N 21:44:17 56° ENE 21:45:45 33° SE
NOSS 2-2 (D) 4.0 21:39:45 10° WNW 21:44:17 68° SSW 21:48:42 19° SE
Cosmos 2263 Rocket 2.7 21:42:46 28° SSE 21:45:01 41° ESE 21:50:14 10° NE
NOSS 6 (C) 4.5 21:42:14 10° WNW 21:45:15 75° SSW 21:45:55 50° SE
SL-24 DEB 4.3 21:43:10 30° S 21:45:26 76° W 21:50:06 10° N
Meteor 2-17 Rocket 4.5 21:39:57 10° NNW 21:46:06 75° W 21:49:41 27° S
Cosmos 1151 Rocket 3.9 21:44:53 28° SE 21:46:23 37° E 21:50:23 10° NNE
Cosmos 2227 Rocket 2.4 21:41:02 10° SW 21:46:42 72° NW 21:52:24 10° NE
Cosmos 1603 4.4 21:42:37 10° NW 21:47:57 40° WSW 21:50:37 25° SSW
GENESIS II 4.4 21:46:48 10° WNW 21:50:37 50° SW 21:51:32 40° S
USA 281 3.2 21:46:12 21° SE 21:50:54 89° NE 21:57:33 10° NW
NOSS 3-4 (A) 3.8 21:44:47 10° W 21:51:05 75° N 21:58:10 10° E
NOSS 3-4 (C) 3.8 21:44:53 10° W 21:51:11 75° N 21:58:17 10° E
APEX 3.6 21:52:37 29° E 21:52:37 29° E 21:54:26 10° ENE
Cosmos 1842 Rocket 4.3 21:49:34 18° SW 21:52:39 50° WNW 21:57:02 10° N
Cosmos 2297 Rocket 2.7 21:48:38 10° WSW 21:54:15 61° NW 21:59:54 10° NE
Cosmos 2074 Rocket 4.2 21:48:27 10° NNW 21:54:43 66° ENE 21:58:41 24° SSE
Cosmos 836 Rocket 4.5 21:50:13 10° NW 21:55:34 86° WSW 21:58:29 28° SSE
Cosmos 2219 3.7 21:51:24 10° WSW 21:56:58 61° NW 22:02:36 10° NE
Cosmos 1709 Rocket 4.2 21:52:18 10° NNW 21:58:30 66° W 22:02:05 26° S
Cosmos 1844 Rocket 4.4 21:57:53 15° SE 21:59:44 18° E 22:03:22 10° ENE
Cosmos 921 Rocket 4.3 21:56:16 10° NW 22:00:09 30° WSW 22:01:48 23° SW
Meteor 1-5 Rocket 4.4 21:56:04 10° NNW 22:01:57 72° ENE 22:05:18 26° SSE
Cosmos 2082 Rocket 3.5 21:58:21 10° NW 22:03:42 40° NNE 22:09:00 10° E
Cosmos 1602 3.9 21:59:58 10° NNW 22:03:45 61° W 22:04:58 39° SSW
RESURS DK-1 4.4 22:01:27 10° W 22:05:09 30° NNW 22:08:54 10° NE
ATLAS 2AS CENTAUR R/B 3.1 21:57:28 10° W 22:05:21 76° N 22:12:45 10° E
Timation 2 Rocket 4.3 21:59:48 10° WSW 22:06:15 69° NW 22:12:26 10° NE
Cosmos 1437 Rocket 2.6 22:08:30 42° S 22:09:43 84° ESE 22:13:34 10° NNE
Helios 1A 3.9 22:08:41 20° ESE 22:11:13 43° ENE 22:15:15 10° N
SAR-Lupe-2 3.5 22:09:21 10° NNE 22:12:59 75° ESE 22:13:58 45° S
Cosmos 2084 Rocket 3.2 22:10:44 22° SW 22:13:12 68° SSE 22:17:23 10° ENE
S3M 4.2 22:08:54 21° SSW 22:13:18 71° WNW 22:19:45 10° NNE
CZ-4C R/B 2.8 22:08:25 10° WNW 22:14:39 81° NNE 22:22:17 10° ESE
Cosmos 1833 Rocket 3.4 22:09:16 10° NW 22:14:50 54° NE 22:20:23 10° ESE
Cosmos 883 Rocket 4.5 22:14:35 26° SSW 22:18:20 88° W 22:24:42 10° NNE
Sich 1 4.2 22:15:20 10° NNW 22:19:10 32° W 22:20:54 23° SW
Cosmos 1470 Rocket 3.5 22:17:26 10° NNW 22:21:50 75° WSW 22:23:35 36° S
COBE Rocket 4.0 22:19:45 32° S 22:21:52 63° W 22:26:46 10° NNW
Resurs 1-4 Rocket 4.4 22:22:01 10° NE 22:24:40 14° E 22:27:18 10° ESE
Cosmos 1437 4.2 22:26:14 22° E 22:26:20 22° E 22:28:40 10° NE
NOSS 2-1 (E) 3.2 22:26:23 47° S 22:26:52 51° SE 22:30:45 10° ENE
Meteor 1-26 Rocket 4.3 22:28:00 29° S 22:31:14 77° ESE 22:37:02 10° NNE
CZ-2D R/B 4.4 22:28:59 10° NE 22:32:18 16° E 22:35:37 10° ESE
Cosmos 1633 Rocket 3.8 22:28:55 10° NNW 22:33:02 42° W 22:34:39 29° SW
Cosmos 2221 4.3 22:30:07 11° WSW 22:33:35 27° WNW 22:37:17 10° N
Nimbus 7 Rocket 4.4 22:27:47 10° NNE 22:33:44 75° ESE 22:36:58 28° S
NOSS 2-2 (C) 4.4 22:29:52 10° WNW 22:34:27 46° SW 22:37:24 26° SSE
Aureole 2 Rocket 1.8 22:37:27 66° N 22:37:27 66° N 22:39:39 10° NNE
Cosmos 2227 4.2 22:34:45 27° SSW 22:38:01 72° SE 22:43:47 10° NE
SL-16 R/B 3.3 22:32:19 10° SE 22:38:18 50° NE 22:44:20 10° NNW
Cosmos 1933 Rocket 3.5 22:34:01 10° NNW 22:38:27 76° WSW 22:40:11 36° S
Cosmos 44 Rocket 3.4 22:36:36 17° SW 22:40:39 81° SSE 22:45:56 10° ENE
Meteor 1-11 Rocket 3.9 22:34:48 10° NNW 22:40:41 79° ENE 22:44:28 24° SSE
Aureole 1 Rocket 3.5 22:38:07 20° SW 22:41:56 71° NW 22:46:09 10° NNE
YAOGAN 11 4.2 22:39:45 28° SSE 22:42:01 76° ENE 22:46:26 10° NNW
TSX-5 3.9 22:40:24 19° WSW 22:43:23 72° NW 22:46:58 10° NE
Cosmos 44 4.2 22:38:07 10° W 22:43:29 59° N 22:48:54 10° ENE
COSMOS 2406 3.5 22:37:48 10° NW 22:43:31 69° NE 22:49:11 10° SE
Cosmos 1818 4.1 22:38:04 10° W 22:43:31 61° N 22:48:59 10° ENE
MTI 4.0 22:40:48 10° N 22:43:48 56° WNW 22:44:27 43° WSW
EO 1 Del DPAF 3.6 22:43:31 10° NNE 22:47:12 49° ESE 22:48:19 36° SSE
Lacrosse 5 rocket 3.3 22:48:04 10° W 22:49:47 17° WSW 22:49:47 17° WSW
ALOS 2 4.1 22:49:56 20° WSW 22:51:35 24° W 22:55:12 10° NW
Cosmos 1536 3.1 22:48:16 10° NNW 22:52:20 66° ENE 22:54:17 29° SSE
Cosmos 1666 2.8 22:49:52 10° NNW 22:53:40 64° W 22:54:48 41° SSW
Cosmos 1242 Rocket 2.6 22:52:39 41° SSW 22:53:49 77° WNW 22:57:31 10° NNE
Thor Agena Rocket 3.5 22:50:49 10° NNE 22:55:56 88° ESE 22:58:37 29° SSW
Cosmos 1782 2.9 22:54:23 35° SSW 22:55:58 69° WNW 23:00:01 10° NNE
ATLAS 5 CENTAUR R/B 2.0 22:51:39 10° WNW 22:56:38 74° SSW 23:02:39 10° SE
Cosmos 2154 Rocket 4.0 22:50:52 10° NNW 22:57:15 82° W 23:01:08 26° S
Cosmos 1933 4.2 22:57:04 25° SW 22:59:04 43° WNW 23:03:00 10° N
Cosmos 1328 Rocket 3.6 22:57:28 33° SSW 22:59:26 75° WNW 23:03:56 10° NNE
SeaSat 1 2.9 22:55:16 10° NE 23:00:09 61° NW 23:04:24 14° WSW
ADEOS II 4.5 22:59:05 10° NE 23:01:37 13° ENE 23:04:08 10° ESE
Cosmos 2228 Rocket 3.7 23:04:19 27° SSE 23:06:20 47° E 23:10:34 10° NNE
Cosmos 2344 4.0 22:58:56 10° W 23:06:44 79° N 23:16:49 10° E
COSMOS 2455 3.1 23:02:33 10° WSW 23:08:35 70° NNW 23:14:38 10° ENE
Cosmos 2184 Rocket 4.3 23:02:50 10° NNW 23:09:02 56° W 23:12:34 26° SSW
Cosmos 1812 2.6 23:10:11 39° SSW 23:11:33 89° ESE 23:15:27 10° NNE
NOSS 2-1 (C) 3.0 23:12:00 27° WSW 23:13:47 87° SSE 23:17:58 10° ENE
Cosmos 158 Rocket 4.2 23:08:54 10° NNW 23:13:55 67° NE 23:18:48 10° SE
Iridium 4 Rocket 4.3 23:11:57 23° SW 23:14:45 43° WNW 23:19:57 10° N
USA 290 2.8 23:11:39 10° NW 23:14:46 40° WSW 23:14:55 39° WSW
UNK 4.3 23:11:23 15° SE 23:15:07 56° ENE 23:19:41 10° NNW
Meteor 1-10 Rocket 4.3 23:13:34 27° S 23:16:39 68° ESE 23:22:11 10° NNE
Cosmos 2341 Rocket 4.1 23:11:11 10° NNW 23:17:34 84° ENE 23:22:11 20° SSE
Cosmos 1733 Rocket 3.6 23:13:24 10° N 23:17:46 56° ENE 23:20:51 18° SE
Cosmos 1340 Rocket 3.1 23:14:20 10° NNW 23:18:21 64° ENE 23:20:48 22° SE
CZ-4 R/B 4.5 23:15:20 10° NNE 23:20:16 50° E 23:23:03 24° SSE
NOSS 2-1 (D) 3.0 23:18:21 24° WSW 23:20:19 89° NW 23:24:31 10° ENE
Cosmos 773 Rocket 4.2 23:17:12 10° NW 23:22:22 56° WSW 23:25:10 27° S
Cosmos 1151 Rocket 3.8 23:21:43 24° SW 23:23:55 43° WNW 23:28:06 10° N
Helios 1B rocket 4.1 23:23:28 10° NE 23:26:57 25° E 23:29:27 15° SE
Cosmos 968 Rocket 3.5 23:24:12 27° SSW 23:27:08 83° ESE 23:32:26 10° NE
Cosmos 2263 Rocket 2.4 23:24:25 17° WSW 23:28:47 68° NW 23:34:24 10° NE
Cosmos 1743 2.7 23:25:39 10° NNW 23:29:29 81° ENE 23:31:20 29° SSE
Cosmos 2227 Rocket 3.7 23:26:21 10° W 23:31:36 36° NNW 23:36:50 10° NE
APEX 3.9 23:31:32 19° W 23:33:00 33° NNW 23:35:36 10° NE
SL-8 Rocket 4.0 23:28:24 10° NNW 23:34:44 86° E 23:39:38 18° SSE
USA 281 4.0 23:33:03 23° SSW 23:36:07 33° WSW 23:42:01 10° NW
USA-17 4.2 23:34:51 10° WNW 23:37:56 85° NNE 23:41:31 10° ESE
Cosmos 2297 Rocket 3.9 23:34:08 10° WNW 23:39:18 34° NNW 23:44:28 10° NE
USA 306 4.3 23:39:46 22° SSE 23:39:46 22° SSE 23:43:05 10° ESE
SL-4 R/B 3.5 23:41:44 24° S 23:41:44 24° S 23:44:57 10° SE
NOSS 3-4 (A) 3.6 23:35:46 10° WNW 23:42:18 84° SSW 23:49:41 10° ESE
NOSS 3-4 (C) 3.6 23:35:52 10° WNW 23:42:25 84° SSW 23:49:47 10° ESE
Cosmos 1869 Rocket 4.0 23:38:15 10° NNW 23:42:29 46° W 23:44:17 29° SSW
Cosmos 1844 Rocket 2.8 23:39:31 26° SSW 23:42:39 62° ESE 23:48:11 10° NE
Cosmos 1486 Rocket 4.0 23:40:25 25° SSW 23:43:35 90° E 23:48:59 10° NE
Cosmos 1538 Rocket 4.1 23:39:29 10° NW 23:44:50 63° WSW 23:48:38 19° SSE
Cosmos 1544 3.1 23:41:42 10° NNW 23:45:15 60° W 23:46:31 35° SSW
Helios 1A 3.7 23:45:17 28° SW 23:46:50 39° W 23:50:51 10° NNW
EO 1 Delta rocket 3.9 23:45:11 26° S 23:47:43 64° W 23:52:24 10° NNW
Cosmos 2082 Rocket 2.2 23:42:43 10° NW 23:48:24 88° NE 23:54:03 10° SE
Meteor 2-6 Rocket 4.3 23:48:13 24° SW 23:51:31 66° WNW 23:56:55 10° NNE
Cosmos 1515 Rocket 4.2 23:49:36 24° SW 23:52:01 47° WNW 23:56:22 10° N
Cosmos 2084 Rocket 3.6 23:48:39 10° W 23:52:45 73° N 23:57:00 10° E
NOSS 7 (H) 4.2 23:50:37 10° WNW 23:53:41 81° SSW 23:57:29 10° ESE
Cosmos 1271 Rocket 2.7 23:53:58 31° SSW 23:55:48 89° WNW 23:59:47 10° NNE
USA 307 4.1 23:55:48 23° S 23:56:17 24° SSE 23:59:44 10° ESE
